Le nostre stazioni meteo in Italia

Pubblicità
Il mio iltempo24.it
Arezzo, Italia (16172): Temperatura & dewpoint: 15.09.2018 05:00:00 - 21.09.2018 05:00:00 (CEST)Arezzo, Italia (16172): velocità del vento: 15.09.2018 05:00:00 - 21.09.2018 05:00:00 (CEST)Arezzo, Italia (16172): direzione del vento: 15.09.2018 05:00:00 - 21.09.2018 05:00:00 (CEST)Arezzo, Italia (16172): reduced air pressure: 15.09.2018 05:00:00 - 21.09.2018 05:00:00 (CEST)Arezzo, Italia (16172): visibility: 15.09.2018 05:00:00 - 21.09.2018 05:00:00 (CEST)
Data & Tempo tt [°C] td [°C] ff [km/h] ff [kn] dd ppp [hPa] vv [km]
21.09.2018 05:00:00 - - - - - - -
21.09.2018 04:00:00 - - - - - - -
21.09.2018 03:00:00 - - - - - - -
21.09.2018 02:00:00 - - - - - - -
21.09.2018 01:00:00 - - - - - - -
21.09.2018 00:00:00 - - - - - - -
20.09.2018 23:00:00 - - - - - - -
20.09.2018 22:00:00 - - - - - - -
20.09.2018 21:00:00 - - - - - - -
20.09.2018 20:00:00 24,2 16,7 0 0 N 1016,9 18
20.09.2018 19:00:00 - - - - - - -
20.09.2018 18:00:00 - - - - - - -
20.09.2018 17:00:00 27,4 14,1 8 4 NE 1016,7 18
20.09.2018 16:00:00 - - - - - - -
20.09.2018 15:00:00 - - - - - - -
20.09.2018 14:00:00 28,2 14,4 8 4 NE 1018,0 20
20.09.2018 13:00:00 - - - - - - -
20.09.2018 12:00:00 - - - - - - -
20.09.2018 11:00:00 25,6 15,3 5 3 NNE 1018,8 20
20.09.2018 10:00:00 - - - - - - -
20.09.2018 09:00:00 - - - - - - -
20.09.2018 08:00:00 17,6 14,7 0 0 N 1019,2 16
20.09.2018 07:00:00 - - - - - - -
20.09.2018 06:00:00 - - - - - - -
20.09.2018 05:00:00 - - - - - - -
20.09.2018 04:00:00 - - - - - - -
20.09.2018 03:00:00 - - - - - - -
20.09.2018 02:00:00 - - - - - - -
20.09.2018 01:00:00 - - - - - - -
20.09.2018 00:00:00 - - - - - - -
19.09.2018 23:00:00 - - - - - - -
19.09.2018 22:00:00 - - - - - - -
19.09.2018 21:00:00 - - - - - - -
19.09.2018 20:00:00 23,8 16,8 5 3 ESE 1018,6 20
19.09.2018 19:00:00 - - - - - - -
19.09.2018 18:00:00 - - - - - - -
19.09.2018 17:00:00 26,4 16,1 9 5 N 1018,1 20
19.09.2018 16:00:00 - - - - - - -
19.09.2018 15:00:00 - - - - - - -
19.09.2018 14:00:00 26,0 17,7 5 3 S 1018,9 20
19.09.2018 13:00:00 - - - - - - -
19.09.2018 12:00:00 - - - - - - -
19.09.2018 11:00:00 22,8 17,7 4 2 NNO 1019,9 20
19.09.2018 10:00:00 - - - - - - -
19.09.2018 09:00:00 - - - - - - -
19.09.2018 08:00:00 16,6 15,8 0 0 N 1020,4 20
19.09.2018 07:00:00 - - - - - - -
19.09.2018 06:00:00 - - - - - - -
19.09.2018 05:00:00 - - - - - - -
19.09.2018 04:00:00 - - - - - - -
19.09.2018 03:00:00 - - - - - - -
19.09.2018 02:00:00 - - - - - - -
19.09.2018 01:00:00 - - - - - - -
19.09.2018 00:00:00 - - - - - - -
18.09.2018 23:00:00 - - - - - - -
18.09.2018 22:00:00 - - - - - - -
18.09.2018 21:00:00 - - - - - - -
18.09.2018 20:00:00 20,6 17,8 15 8 N 1019,8 12
18.09.2018 19:00:00 - - - - - - -
18.09.2018 18:00:00 - - - - - - -
18.09.2018 17:00:00 27,2 17,7 9 5 SSO 1019,3 14
18.09.2018 16:00:00 - - - - - - -
18.09.2018 15:00:00 - - - - - - -
18.09.2018 14:00:00 26,8 15,5 11 6 S 1019,9 20
18.09.2018 13:00:00 - - - - - - -
18.09.2018 12:00:00 - - - - - - -
18.09.2018 11:00:00 21,6 17,2 4 2 SO 1021,1 15
18.09.2018 10:00:00 - - - - - - -
18.09.2018 09:00:00 - - - - - - -
18.09.2018 08:00:00 15,8 15,2 0 0 N 1021,6 11
18.09.2018 07:00:00 - - - - - - -
18.09.2018 06:00:00 - - - - - - -
18.09.2018 05:00:00 - - - - - - -
18.09.2018 04:00:00 - - - - - - -
18.09.2018 03:00:00 - - - - - - -
18.09.2018 02:00:00 - - - - - - -
18.09.2018 01:00:00 - - - - - - -
18.09.2018 00:00:00 - - - - - - -
17.09.2018 23:00:00 - - - - - - -
17.09.2018 22:00:00 - - - - - - -
17.09.2018 21:00:00 - - - - - - -
17.09.2018 20:00:00 20,2 19,0 0 0 N 1021,1 14
17.09.2018 19:00:00 - - - - - - -
17.09.2018 18:00:00 - - - - - - -
17.09.2018 17:00:00 27,4 15,1 0 0 N 1019,3 12
17.09.2018 16:00:00 - - - - - - -
17.09.2018 15:00:00 - - - - - - -
17.09.2018 14:00:00 26,0 17,1 0 0 N 1021,5 15
17.09.2018 13:00:00 - - - - - - -
17.09.2018 12:00:00 - - - - - - -
17.09.2018 11:00:00 23,0 15,8 0 0 N 1021,8 15
17.09.2018 10:00:00 - - - - - - -
17.09.2018 09:00:00 - - - - - - -
17.09.2018 08:00:00 16,0 15,2 0 0 N 1022,0 15
17.09.2018 07:00:00 - - - - - - -
17.09.2018 06:00:00 - - - - - - -
17.09.2018 05:00:00 - - - - - - -
17.09.2018 04:00:00 - - - - - - -
17.09.2018 03:00:00 - - - - - - -
17.09.2018 02:00:00 - - - - - - -
17.09.2018 01:00:00 - - - - - - -
17.09.2018 00:00:00 - - - - - - -
16.09.2018 23:00:00 - - - - - - -
16.09.2018 22:00:00 - - - - - - -
16.09.2018 21:00:00 - - - - - - -
16.09.2018 20:00:00 24,6 17,8 0 0 N 1020,6 15
16.09.2018 19:00:00 - - - - - - -
16.09.2018 18:00:00 - - - - - - -
16.09.2018 17:00:00 28,0 13,2 0 0 N 1020,2 15
16.09.2018 16:00:00 - - - - - - -
16.09.2018 15:00:00 - - - - - - -
16.09.2018 14:00:00 28,8 13,1 0 0 N 1021,0 16
16.09.2018 13:00:00 - - - - - - -
16.09.2018 12:00:00 - - - - - - -
16.09.2018 11:00:00 - - - - - - -
16.09.2018 10:00:00 - - - - - - -
16.09.2018 09:00:00 - - - - - - -
16.09.2018 08:00:00 16,0 15,2 0 0 N 1021,9 9
16.09.2018 07:00:00 - - - - - - -
16.09.2018 06:00:00 - - - - - - -
16.09.2018 05:00:00 - - - - - - -
16.09.2018 04:00:00 - - - - - - -
16.09.2018 03:00:00 - - - - - - -
16.09.2018 02:00:00 - - - - - - -
16.09.2018 01:00:00 - - - - - - -
16.09.2018 00:00:00 - - - - - - -
15.09.2018 23:00:00 - - - - - - -
15.09.2018 22:00:00 - - - - - - -
15.09.2018 21:00:00 - - - - - - -
15.09.2018 20:00:00 25,0 16,2 14 8 SO 1018,9 18
15.09.2018 19:00:00 - - - - - - -
15.09.2018 18:00:00 - - - - - - -
15.09.2018 17:00:00 28,2 14,8 8 4 ONO 1018,2 20
15.09.2018 16:00:00 - - - - - - -
15.09.2018 15:00:00 - - - - - - -
15.09.2018 14:00:00 27,8 14,1 4 2 N 1019,4 20
15.09.2018 13:00:00 - - - - - - -
15.09.2018 12:00:00 - - - - - - -
15.09.2018 11:00:00 23,8 16,4 0 0 N 1019,7 20
15.09.2018 10:00:00 - - - - - - -
15.09.2018 09:00:00 - - - - - - -
15.09.2018 08:00:00 15,4 14,6 0 0 N 1019,6 14
15.09.2018 07:00:00 - - - - - - -
15.09.2018 06:00:00 - - - - - - -
15.09.2018 05:00:00 - - - - - - -

tt = Temperatura
td = dewpoint
ff = velocità del vento
dd = direzione del vento
ppp = reduced air pressure
vv = visibility

Stazioni seguenti

WeatherPro
AMSI
MeteoEarth